Time,TemperatureF,DewpointF,PressureIn,WindDirection,WindDirectionDegrees,WindSpeedMPH,WindSpeedGustMPH,Humidity,HourlyPrecipIn,Conditions,Clouds,dailyrainin,SoftwareType,DateUTC
2013-02-24 00:00:00,35.7,35.2,29.84,ENE,64,0.0,5.0,98,0.00,,,0.01,VWS V14.01,2013-02-24 05:00:00,
2013-02-24 00:05:00,35.7,35.2,29.84,ENE,64,0.0,5.0,98,0.00,,,0.00,VWS V14.01,2013-02-24 05:05:00,
2013-02-24 00:10:00,35.5,35.0,29.84,East,80,5.0,5.0,98,0.00,,,0.00,VWS V14.01,2013-02-24 05:10:00,
2013-02-24 00:15:00,35.5,35.0,29.84,ENE,57,2.0,5.0,98,0.00,,,0.00,VWS V14.01,2013-02-24 05:15:00,
2013-02-24 00:20:00,35.5,35.0,29.84,ENE,64,4.0,7.0,98,0.00,,,0.00,VWS V14.01,2013-02-24 05:20:00,
2013-02-24 00:25:00,35.4,34.9,29.84,ENE,67,0.0,7.0,98,0.00,,,0.00,VWS V14.01,2013-02-24 05:25:00,
2013-02-24 00:30:00,35.4,34.9,29.84,ENE,74,0.0,7.0,98,0.00,,,0.00,VWS V14.01,2013-02-24 05:30:00,
2013-02-24 00:35:00,35.4,34.9,29.83,ENE,65,4.0,7.0,98,0.00,,,0.00,VWS V14.01,2013-02-24 05:35:00,
2013-02-24 00:40:00,35.4,34.9,29.83,ENE,61,4.0,8.0,98,0.00,,,0.00,VWS V14.01,2013-02-24 05:40:00,
2013-02-24 00:45:00,35.4,34.9,29.83,East,82,0.0,8.0,98,0.00,,,0.00,VWS V14.01,2013-02-24 05:45:00,
2013-02-24 00:50:00,35.4,34.9,29.83,East,82,0.0,0.0,98,0.00,,,0.00,VWS V14.01,2013-02-24 05:50:00,
2013-02-24 00:55:00,35.4,34.9,29.83,East,82,0.0,0.0,98,0.00,,,0.00,VWS V14.01,2013-02-24 05:55:00,
2013-02-24 01:00:00,35.2,34.7,29.83,East,82,1.0,4.0,98,0.00,,,0.00,VWS V14.01,2013-02-24 06:00:00,
2013-02-24 01:05:00,35.2,34.7,29.84,NE,39,0.0,6.0,98,0.00,,,0.00,VWS V14.01,2013-02-24 06:05:00,
2013-02-24 01:10:00,35.2,34.7,29.84,NNE,16,0.0,6.0,98,0.00,,,0.00,VWS V14.01,2013-02-24 06:10:00,
2013-02-24 01:15:00,35.2,34.7,29.84,NNE,17,0.0,6.0,98,0.00,,,0.00,VWS V14.01,2013-02-24 06:15:00,
2013-02-24 01:20:00,35.2,34.7,29.84,NE,40,0.0,3.0,98,0.00,,,0.00,VWS V14.01,2013-02-24 06:20:00,
2013-02-24 01:24:00,35.2,34.7,29.84,NE,40,0.0,5.0,98,0.00,,,0.00,VWS V14.01,2013-02-24 06:24:00,
2013-02-24 01:29:00,35.2,34.7,29.84,ENE,57,2.0,5.0,98,0.00,,,0.00,VWS V14.01,2013-02-24 06:29:00,
2013-02-24 01:30:00,35.2,34.7,29.82,East,100,1.0,6.0,98,0.00,,,0.00,VWS V14.01,2013-02-24 06:30:00,
2013-02-24 01:34:00,35.2,34.7,29.84,East,92,0.0,0.0,98,0.00,,,0.00,VWS V14.01,2013-02-24 06:34:00,
2013-02-24 01:39:00,35.2,34.7,29.84,East,92,2.0,2.0,98,0.00,,,0.00,VWS V14.01,2013-02-24 06:39:00,
2013-02-24 01:44:00,35.2,34.7,29.84,East,92,0.0,2.0,98,0.00,,,0.00,VWS V14.01,2013-02-24 06:44:00,
2013-02-24 01:45:00,35.1,34.6,29.82,ENE,57,2.0,7.0,98,0.00,,,0.00,VWS V14.01,2013-02-24 06:45:00,
2013-02-24 01:49:00,35.2,34.7,29.84,NNE,20,0.0,7.0,98,0.00,,,0.00,VWS V14.01,2013-02-24 06:49:00,
2013-02-24 01:54:00,35.2,34.7,29.84,ENE,63,4.0,7.0,98,0.00,,,0.00,VWS V14.01,2013-02-24 06:54:00,
2013-02-24 01:59:00,35.2,34.7,29.84,ENE,63,0.0,7.0,98,0.00,,,0.00,VWS V14.01,2013-02-24 06:59:00,
2013-02-24 02:00:00,35.1,34.6,29.81,ENE,69,0.0,5.0,98,0.00,,,0.00,VWS V14.01,2013-02-24 07:00:00,
2013-02-24 02:04:00,35.2,34.7,29.84,ENE,63,0.0,2.0,98,0.00,,,0.00,VWS V14.01,2013-02-24 07:04:00,
2013-02-24 02:09:00,35.2,34.7,29.84,ENE,63,0.0,5.0,98,0.00,,,0.00,VWS V14.01,2013-02-24 07:09:00,
2013-02-24 02:14:00,35.2,34.7,29.84,East,90,0.0,5.0,98,0.00,,,0.00,VWS V14.01,2013-02-24 07:14:00,
2013-02-24 02:15:00,35.1,34.6,29.82,ENE,57,0.0,6.0,98,0.00,,,0.00,VWS V14.01,2013-02-24 07:15:00,
2013-02-24 02:19:00,35.2,34.7,29.83,NE,46,5.0,6.0,98,0.00,,,0.00,VWS V14.01,2013-02-24 07:19:00,
2013-02-24 02:24:00,35.2,34.7,29.83,NE,46,0.0,6.0,98,0.00,,,0.00,VWS V14.01,2013-02-24 07:24:00,
2013-02-24 02:29:00,35.2,34.7,29.83,ENE,67,1.0,6.0,98,0.00,,,0.00,VWS V14.01,2013-02-24 07:29:00,
2013-02-24 02:30:00,35.1,34.6,29.81,NE,43,4.0,6.0,98,0.00,,,0.00,VWS V14.01,2013-02-24 07:30:00,
2013-02-24 02:34:00,35.2,34.7,29.82,East,81,2.0,7.0,98,0.00,,,0.00,VWS V14.01,2013-02-24 07:34:00,
2013-02-24 02:39:00,35.2,34.7,29.82,NE,52,0.0,7.0,98,0.00,,,0.00,VWS V14.01,2013-02-24 07:39:00,
2013-02-24 02:44:00,35.2,34.7,29.82,ENE,61,2.0,7.0,98,0.00,,,0.00,VWS V14.01,2013-02-24 07:44:00,
2013-02-24 02:45:00,35.1,34.6,29.83,NNE,14,1.0,7.0,98,0.00,,,0.00,VWS V14.01,2013-02-24 07:45:00,
2013-02-24 02:49:00,35.1,34.6,29.82,NE,56,0.0,5.0,98,0.00,,,0.00,VWS V14.01,2013-02-24 07:49:00,
2013-02-24 02:54:00,35.1,34.6,29.82,NE,56,0.0,5.0,98,0.00,,,0.00,VWS V14.01,2013-02-24 07:54:00,
2013-02-24 02:59:00,35.1,34.6,29.82,ENE,69,0.0,5.0,98,0.00,,,0.00,VWS V14.01,2013-02-24 07:59:00,
2013-02-24 03:00:00,34.9,34.4,29.82,NE,44,4.0,9.0,98,0.00,,,0.00,VWS V14.01,2013-02-24 08:00:00,
2013-02-24 03:04:00,35.1,34.6,29.81,ESE,104,0.0,5.0,98,0.00,,,0.00,VWS V14.01,2013-02-24 08:04:00,
2013-02-24 03:09:00,35.1,34.6,29.81,ESE,122,4.0,6.0,98,0.00,,,0.00,VWS V14.01,2013-02-24 08:09:00,
2013-02-24 03:14:00,35.1,34.6,29.81,ENE,57,1.0,6.0,98,0.00,,,0.00,VWS V14.01,2013-02-24 08:14:00,
2013-02-24 03:15:00,34.9,34.4,29.80,NE,52,0.0,7.0,98,0.00,,,0.00,VWS V14.01,2013-02-24 08:15:00,
2013-02-24 03:19:00,35.1,34.6,29.82,ENE,57,0.0,3.0,98,0.00,,,0.00,VWS V14.01,2013-02-24 08:19:00,
2013-02-24 03:24:00,35.1,34.6,29.82,ENE,59,2.0,4.0,98,0.00,,,0.00,VWS V14.01,2013-02-24 08:24:00,
2013-02-24 03:29:00,35.1,34.6,29.82,East,90,4.0,6.0,98,0.00,,,0.00,VWS V14.01,2013-02-24 08:29:00,
2013-02-24 03:30:00,34.9,34.7,29.80,NE,53,2.0,6.0,99,0.00,,,0.00,VWS V14.01,2013-02-24 08:30:00,
2013-02-24 03:34:00,35.1,34.6,29.81,NE,43,0.0,4.0,98,0.00,,,0.00,VWS V14.01,2013-02-24 08:34:00,
2013-02-24 03:39:00,35.1,34.6,29.81,NNE,24,0.0,7.0,98,0.00,,,0.00,VWS V14.01,2013-02-24 08:39:00,
2013-02-24 03:44:00,35.1,34.6,29.81,NW,325,5.0,7.0,98,0.00,,,0.00,VWS V14.01,2013-02-24 08:44:00,
2013-02-24 03:45:00,35.1,34.8,29.80,NE,50,6.0,9.0,99,0.00,,,0.00,VWS V14.01,2013-02-24 08:45:00,
2013-02-24 03:49:00,35.1,34.6,29.83,NNE,15,0.0,1.0,98,0.00,,,0.00,VWS V14.01,2013-02-24 08:49:00,
2013-02-24 03:54:00,34.9,34.4,29.83,NE,38,4.0,4.0,98,0.00,,,0.00,VWS V14.01,2013-02-24 08:54:00,
2013-02-24 03:59:00,34.9,34.4,29.83,NE,36,4.0,9.0,98,0.00,,,0.00,VWS V14.01,2013-02-24 08:59:00,
2013-02-24 04:04:00,34.9,34.4,29.82,ENE,57,6.0,7.0,98,0.00,,,0.00,VWS V14.01,2013-02-24 09:04:00,
2013-02-24 04:09:00,34.9,34.4,29.82,East,85,0.0,7.0,98,0.00,,,0.00,VWS V14.01,2013-02-24 09:09:00,
2013-02-24 04:14:00,34.9,34.4,29.82,NNE,30,2.0,7.0,98,0.00,,,0.00,VWS V14.01,2013-02-24 09:14:00,
2013-02-24 04:15:00,35.2,35.0,29.80,NE,51,1.0,7.0,99,0.00,,,0.00,VWS V14.01,2013-02-24 09:15:00,
2013-02-24 04:19:00,34.9,34.7,29.80,NE,52,2.0,2.0,99,0.00,,,0.00,VWS V14.01,2013-02-24 09:19:00,
2013-02-24 04:24:00,34.9,34.7,29.80,NE,53,4.0,6.0,99,0.00,,,0.00,VWS V14.01,2013-02-24 09:24:00,
2013-02-24 04:29:00,34.9,34.7,29.80,NE,51,0.0,6.0,99,0.00,,,0.00,VWS V14.01,2013-02-24 09:29:00,
2013-02-24 04:30:00,35.2,35.0,29.80,ENE,75,2.0,5.0,99,0.00,,,0.00,VWS V14.01,2013-02-24 09:30:00,
2013-02-24 04:34:00,35.1,34.8,29.80,NE,52,3.0,7.0,99,0.00,,,0.00,VWS V14.01,2013-02-24 09:34:00,
2013-02-24 04:39:00,35.1,34.8,29.80,NE,47,0.0,7.0,99,0.00,,,0.00,VWS V14.01,2013-02-24 09:39:00,
2013-02-24 04:44:00,35.1,34.8,29.80,NE,38,0.0,7.0,99,0.00,,,0.00,VWS V14.01,2013-02-24 09:44:00,
2013-02-24 04:45:00,35.2,35.0,29.79,NNE,29,2.0,6.0,99,0.00,,,0.00,VWS V14.01,2013-02-24 09:45:00,
2013-02-24 04:49:00,35.1,34.8,29.80,ENE,69,2.0,6.0,99,0.00,,,0.00,VWS V14.01,2013-02-24 09:49:00,
2013-02-24 04:54:00,35.1,34.8,29.80,ENE,74,0.0,6.0,99,0.00,,,0.00,VWS V14.01,2013-02-24 09:54:00,
2013-02-24 04:59:00,35.1,34.8,29.80,ENE,66,4.0,6.0,99,0.00,,,0.00,VWS V14.01,2013-02-24 09:59:00,
2013-02-24 05:00:00,35.2,34.7,29.80,NNE,29,0.0,2.0,98,0.00,,,0.00,VWS V14.01,2013-02-24 10:00:00,
2013-02-24 05:05:00,35.1,34.8,29.80,NNE,23,1.0,6.0,99,0.00,,,0.00,VWS V14.01,2013-02-24 10:05:00,
2013-02-24 05:10:00,35.1,34.8,29.80,NE,34,3.0,7.0,99,0.00,,,0.00,VWS V14.01,2013-02-24 10:10:00,
2013-02-24 05:15:00,35.2,35.0,29.80,ENE,67,0.0,7.0,99,0.00,,,0.00,VWS V14.01,2013-02-24 10:15:00,
2013-02-24 05:20:00,35.2,35.0,29.80,NE,51,0.0,1.0,99,0.00,,,0.00,VWS V14.01,2013-02-24 10:20:00,
2013-02-24 05:25:00,35.2,35.0,29.80,NE,51,0.0,5.0,99,0.00,,,0.00,VWS V14.01,2013-02-24 10:25:00,
2013-02-24 05:30:00,35.2,35.0,29.80,ENE,62,3.0,5.0,99,0.00,,,0.00,VWS V14.01,2013-02-24 10:30:00,
2013-02-24 05:35:00,35.2,35.0,29.80,NNE,29,2.0,6.0,99,0.00,,,0.00,VWS V14.01,2013-02-24 10:35:00,
2013-02-24 05:40:00,35.2,34.7,29.80,NNE,29,0.0,6.0,98,0.00,,,0.00,VWS V14.01,2013-02-24 10:40:00,
2013-02-24 05:45:00,35.2,35.0,29.80,NNE,29,0.0,6.0,99,0.00,,,0.00,VWS V14.01,2013-02-24 10:45:00,
2013-02-24 05:50:00,35.2,35.0,29.79,NNE,29,0.0,2.0,99,0.00,,,0.00,VWS V14.01,2013-02-24 10:50:00,
2013-02-24 05:55:00,35.4,35.2,29.79,NNE,29,0.0,2.0,99,0.00,,,0.00,VWS V14.01,2013-02-24 10:55:00,
2013-02-24 06:00:00,35.2,34.7,29.79,NNE,29,0.0,2.0,98,0.00,,,0.00,VWS V14.01,2013-02-24 11:00:00,
2013-02-24 06:05:00,35.2,34.7,29.80,NNE,29,0.0,0.0,98,0.00,,,0.00,VWS V14.01,2013-02-24 11:05:00,
2013-02-24 06:10:00,35.2,34.7,29.80,NNE,29,0.0,0.0,98,0.00,,,0.00,VWS V14.01,2013-02-24 11:10:00,
2013-02-24 06:15:00,35.2,34.7,29.80,NNE,29,0.0,0.0,98,0.00,,,0.00,VWS V14.01,2013-02-24 11:15:00,
2013-02-24 06:20:00,35.1,34.6,29.80,NNE,29,0.0,0.0,98,0.00,,,0.00,VWS V14.01,2013-02-24 11:20:00,
2013-02-24 06:25:00,35.1,34.6,29.80,ENE,62,0.0,3.0,98,0.00,,,0.00,VWS V14.01,2013-02-24 11:25:00,
2013-02-24 06:30:00,35.1,34.6,29.80,ENE,62,0.0,3.0,98,0.00,,,0.00,VWS V14.01,2013-02-24 11:30:00,
2013-02-24 06:34:00,34.9,34.4,29.80,ENE,62,0.0,0.0,98,0.00,,,0.00,VWS V14.01,2013-02-24 11:34:00,
2013-02-24 06:39:00,34.9,34.4,29.80,ENE,62,0.0,0.0,98,0.00,,,0.00,VWS V14.01,2013-02-24 11:39:00,
2013-02-24 06:44:00,34.9,34.4,29.80,ENE,62,0.0,2.0,98,0.00,,,0.00,VWS V14.01,2013-02-24 11:44:00,
2013-02-24 06:45:00,35.2,34.7,29.81,South,172,0.0,1.0,98,0.00,,,0.00,VWS V14.01,2013-02-24 11:45:00,
2013-02-24 06:49:00,34.9,34.4,29.80,East,90,2.0,5.0,98,0.00,,,0.00,VWS V14.01,2013-02-24 11:49:00,
2013-02-24 06:54:00,34.9,34.4,29.80,ESE,117,0.0,5.0,98,0.00,,,0.00,VWS V14.01,2013-02-24 11:54:00,
2013-02-24 06:59:00,34.9,34.4,29.80,ESE,117,0.0,5.0,98,0.00,,,0.00,VWS V14.01,2013-02-24 11:59:00,
2013-02-24 07:00:00,35.2,34.7,29.81,SSE,147,0.0,1.0,98,0.00,,,0.00,VWS V14.01,2013-02-24 12:00:00,
2013-02-24 07:04:00,35.1,34.6,29.80,ESE,117,0.0,2.0,98,0.00,,,0.00,VWS V14.01,2013-02-24 12:04:00,
2013-02-24 07:09:00,35.1,34.6,29.80,ESE,117,0.0,2.0,98,0.00,,,0.00,VWS V14.01,2013-02-24 12:09:00,
2013-02-24 07:14:00,35.2,34.7,29.80,ESE,117,0.0,2.0,98,0.00,,,0.00,VWS V14.01,2013-02-24 12:14:00,
2013-02-24 07:15:00,35.7,35.2,29.81,SSE,147,0.0,0.0,98,0.00,,,0.00,VWS V14.01,2013-02-24 12:15:00,
2013-02-24 07:19:00,35.2,34.7,29.80,ESE,117,0.0,0.0,98,0.00,,,0.00,VWS V14.01,2013-02-24 12:19:00,
2013-02-24 07:24:00,35.2,34.7,29.80,ESE,117,0.0,0.0,98,0.00,,,0.00,VWS V14.01,2013-02-24 12:24:00,
2013-02-24 07:29:00,35.2,34.7,29.80,ESE,117,0.0,0.0,98,0.00,,,0.00,VWS V14.01,2013-02-24 12:29:00,
2013-02-24 07:30:00,35.9,35.4,29.81,SW,230,0.0,4.0,98,0.00,,,0.00,VWS V14.01,2013-02-24 12:30:00,
2013-02-24 07:34:00,35.2,34.7,29.81,ESE,117,0.0,0.0,98,0.00,,,0.00,VWS V14.01,2013-02-24 12:34:00,
2013-02-24 07:39:00,35.2,34.7,29.81,ESE,117,0.0,0.0,98,0.00,,,0.00,VWS V14.01,2013-02-24 12:39:00,
2013-02-24 07:44:00,35.2,34.7,29.81,South,172,0.0,0.0,98,0.00,,,0.00,VWS V14.01,2013-02-24 12:44:00,
2013-02-24 07:45:00,36.2,35.7,29.81,SW,230,0.0,1.0,98,0.00,,,0.00,VWS V14.01,2013-02-24 12:45:00,
2013-02-24 07:49:00,35.2,34.7,29.81,SSE,147,0.0,1.0,98,0.00,,,0.00,VWS V14.01,2013-02-24 12:49:00,
2013-02-24 07:54:00,35.2,34.7,29.81,SSE,147,0.0,1.0,98,0.00,,,0.00,VWS V14.01,2013-02-24 12:54:00,
2013-02-24 07:59:00,35.2,34.7,29.81,SSE,147,0.0,1.0,98,0.00,,,0.00,VWS V14.01,2013-02-24 12:59:00,
2013-02-24 08:00:00,37.1,36.6,29.81,West,279,0.0,7.0,98,0.00,,,0.00,VWS V14.01,2013-02-24 13:00:00,
2013-02-24 08:04:00,35.4,34.9,29.81,SSE,147,0.0,0.0,98,0.00,,,0.00,VWS V14.01,2013-02-24 13:04:00,
2013-02-24 08:09:00,35.4,34.9,29.81,SSE,147,0.0,0.0,98,0.00,,,0.00,VWS V14.01,2013-02-24 13:09:00,
2013-02-24 08:14:00,35.5,35.0,29.81,SSE,147,0.0,0.0,98,0.00,,,0.00,VWS V14.01,2013-02-24 13:14:00,
2013-02-24 08:15:00,37.9,37.4,29.80,West,261,5.0,9.0,98,0.00,,,0.00,VWS V14.01,2013-02-24 13:15:00,
2013-02-24 08:19:00,35.7,35.2,29.81,SSE,147,0.0,0.0,98,0.00,,,0.00,VWS V14.01,2013-02-24 13:19:00,
2013-02-24 08:24:00,35.8,35.3,29.81,SSE,147,0.0,0.0,98,0.00,,,0.00,VWS V14.01,2013-02-24 13:24:00,
2013-02-24 08:29:00,35.9,35.4,29.81,SW,230,2.0,4.0,98,0.00,,,0.00,VWS V14.01,2013-02-24 13:29:00,
2013-02-24 08:30:00,39.2,37.9,29.81,NW,315,5.0,10.0,95,0.00,,,0.00,VWS V14.01,2013-02-24 13:30:00,
2013-02-24 08:34:00,35.9,35.4,29.81,SW,230,0.0,0.0,98,0.00,,,0.00,VWS V14.01,2013-02-24 13:34:00,
2013-02-24 08:39:00,36.1,35.6,29.81,SW,230,0.0,1.0,98,0.00,,,0.00,VWS V14.01,2013-02-24 13:39:00,
2013-02-24 08:44:00,36.2,35.7,29.81,SW,230,0.0,1.0,98,0.00,,,0.00,VWS V14.01,2013-02-24 13:44:00,
2013-02-24 08:45:00,40.1,37.1,29.81,NE,36,6.0,11.0,89,0.00,,,0.00,VWS V14.01,2013-02-24 13:45:00,
2013-02-24 08:49:00,36.4,35.9,29.81,SW,230,0.0,0.0,98,0.00,,,0.00,VWS V14.01,2013-02-24 13:49:00,
2013-02-24 08:54:00,36.5,36.0,29.81,SW,230,4.0,4.0,98,0.00,,,0.00,VWS V14.01,2013-02-24 13:54:00,
2013-02-24 08:59:00,36.8,36.3,29.81,NW,316,0.0,5.0,98,0.00,,,0.00,VWS V14.01,2013-02-24 13:59:00,
2013-02-24 09:00:00,40.8,35.7,29.81,NE,55,0.0,14.0,82,0.00,,,0.00,VWS V14.01,2013-02-24 14:00:00,
2013-02-24 09:04:00,37.2,36.7,29.81,NNW,342,3.0,8.0,98,0.00,,,0.00,VWS V14.01,2013-02-24 14:04:00,
2013-02-24 09:09:00,37.5,37.0,29.81,NNW,338,3.0,8.0,98,0.00,,,0.00,VWS V14.01,2013-02-24 14:09:00,
2013-02-24 09:14:00,37.8,37.3,29.81,WSW,246,4.0,9.0,98,0.00,,,0.00,VWS V14.01,2013-02-24 14:14:00,
2013-02-24 09:15:00,41.2,35.5,29.81,WNW,285,0.0,8.0,80,0.00,,,0.00,VWS V14.01,2013-02-24 14:15:00,
2013-02-24 09:19:00,38.1,37.3,29.80,West,274,7.0,10.0,97,0.00,,,0.00,VWS V14.01,2013-02-24 14:19:00,
2013-02-24 09:24:00,38.5,37.7,29.80,WNW,284,0.0,10.0,97,0.00,,,0.00,VWS V14.01,2013-02-24 14:24:00,
2013-02-24 09:29:00,39.0,38.0,29.80,NNW,331,0.0,10.0,96,0.00,,,0.00,VWS V14.01,2013-02-24 14:29:00,
2013-02-24 09:30:00,43.1,35.7,29.81,ENE,67,0.0,12.0,75,0.00,,,0.00,VWS V14.01,2013-02-24 14:30:00,
2013-02-24 09:34:00,39.2,37.3,29.81,NE,50,4.0,7.0,93,0.00,,,0.00,VWS V14.01,2013-02-24 14:34:00,
2013-02-24 09:39:00,39.7,37.6,29.81,WSW,254,9.0,9.0,92,0.00,,,0.00,VWS V14.01,2013-02-24 14:39:00,
2013-02-24 09:44:00,40.0,37.3,29.81,NNW,332,0.0,11.0,90,0.00,,,0.00,VWS V14.01,2013-02-24 14:44:00,
2013-02-24 09:45:00,42.4,35.0,29.81,SW,227,5.0,11.0,75,0.00,,,0.00,VWS V14.01,2013-02-24 14:45:00,
2013-02-24 09:49:00,40.4,37.4,29.81,NNW,336,0.0,9.0,89,0.00,,,0.00,VWS V14.01,2013-02-24 14:49:00,
2013-02-24 09:54:00,40.5,36.3,29.81,West,269,5.0,14.0,85,0.00,,,0.00,VWS V14.01,2013-02-24 14:54:00,
2013-02-24 09:59:00,40.8,36.0,29.81,WSW,238,3.0,14.0,83,0.00,,,0.00,VWS V14.01,2013-02-24 14:59:00,
2013-02-24 10:00:00,41.8,33.8,29.82,NNW,329,4.0,12.0,73,0.00,,,0.00,VWS V14.01,2013-02-24 15:00:00,
2013-02-24 10:04:00,41.1,36.0,29.81,SSW,192,1.0,8.0,82,0.00,,,0.00,VWS V14.01,2013-02-24 15:04:00,
2013-02-24 10:09:00,42.0,36.6,29.81,ENE,59,3.0,8.0,81,0.00,,,0.00,VWS V14.01,2013-02-24 15:09:00,
2013-02-24 10:14:00,41.5,35.8,29.81,West,263,6.0,8.0,80,0.00,,,0.00,VWS V14.01,2013-02-24 15:14:00,
2013-02-24 10:15:00,43.1,32.2,29.81,West,259,0.0,13.0,65,0.00,,,0.00,VWS V14.01,2013-02-24 15:15:00,
2013-02-24 10:19:00,41.5,35.5,29.81,West,271,12.0,12.0,79,0.00,,,0.00,VWS V14.01,2013-02-24 15:19:00,
2013-02-24 10:24:00,41.8,36.1,29.81,NNE,14,0.0,12.0,80,0.00,,,0.00,VWS V14.01,2013-02-24 15:24:00,
2013-02-24 10:29:00,42.8,35.8,29.81,NE,51,0.0,12.0,76,0.00,,,0.00,VWS V14.01,2013-02-24 15:29:00,
2013-02-24 10:30:00,42.4,32.2,29.81,WSW,257,0.0,7.0,67,0.00,,,0.00,VWS V14.01,2013-02-24 15:30:00,
2013-02-24 10:34:00,42.7,35.0,29.81,NNW,344,0.0,11.0,74,0.00,,,0.00,VWS V14.01,2013-02-24 15:34:00,
2013-02-24 10:39:00,42.4,34.7,29.81,NNW,327,0.0,11.0,74,0.00,,,0.00,VWS V14.01,2013-02-24 15:39:00,
2013-02-24 10:44:00,42.4,35.0,29.81,East,98,0.0,11.0,75,0.00,,,0.00,VWS V14.01,2013-02-24 15:44:00,
2013-02-24 10:45:00,42.2,30.9,29.81,WSW,257,5.0,10.0,64,0.00,,,0.00,VWS V14.01,2013-02-24 15:45:00,
2013-02-24 10:49:00,42.4,34.7,29.81,WNW,290,0.0,8.0,74,0.00,,,0.00,VWS V14.01,2013-02-24 15:49:00,
2013-02-24 10:54:00,42.2,34.5,29.81,West,262,6.0,9.0,74,0.00,,,0.00,VWS V14.01,2013-02-24 15:54:00,
2013-02-24 10:59:00,42.0,34.0,29.81,WNW,284,7.0,12.0,73,0.00,,,0.00,VWS V14.01,2013-02-24 15:59:00,
2013-02-24 11:00:00,43.4,31.3,29.81,West,275,9.0,11.0,62,0.00,,,0.00,VWS V14.01,2013-02-24 16:00:00,
2013-02-24 11:04:00,41.7,33.3,29.82,SW,229,8.0,8.0,72,0.00,,,0.00,VWS V14.01,2013-02-24 16:04:00,
2013-02-24 11:09:00,42.4,33.3,29.82,NW,315,4.0,11.0,70,0.00,,,0.00,VWS V14.01,2013-02-24 16:09:00,
2013-02-24 11:14:00,43.1,32.2,29.82,NW,304,0.0,13.0,65,0.00,,,0.00,VWS V14.01,2013-02-24 16:14:00,
2013-02-24 11:15:00,42.4,31.1,29.81,West,278,3.0,14.0,64,0.00,,,0.00,VWS V14.01,2013-02-24 16:15:00,
2013-02-24 11:19:00,42.8,31.5,29.81,West,275,7.0,7.0,64,0.00,,,0.00,VWS V14.01,2013-02-24 16:19:00,
2013-02-24 11:24:00,42.5,32.0,29.81,WSW,246,1.0,7.0,66,0.00,,,0.00,VWS V14.01,2013-02-24 16:24:00,
2013-02-24 11:29:00,42.4,31.5,29.81,WSW,254,3.0,7.0,65,0.00,,,0.00,VWS V14.01,2013-02-24 16:29:00,
2013-02-24 11:30:00,42.2,30.5,29.81,NE,50,3.0,9.0,63,0.00,,,0.00,VWS V14.01,2013-02-24 16:30:00,
2013-02-24 11:34:00,42.5,32.3,29.81,West,267,5.0,7.0,67,0.00,,,0.00,VWS V14.01,2013-02-24 16:34:00,
2013-02-24 11:39:00,42.2,31.3,29.81,WSW,241,3.0,7.0,65,0.00,,,0.00,VWS V14.01,2013-02-24 16:39:00,
2013-02-24 11:44:00,42.2,30.9,29.81,West,276,8.0,10.0,64,0.00,,,0.00,VWS V14.01,2013-02-24 16:44:00,
2013-02-24 11:45:00,41.7,30.4,29.81,WNW,300,6.0,11.0,64,0.00,,,0.00,VWS V14.01,2013-02-24 16:45:00,
2013-02-24 11:49:00,42.1,30.8,29.81,West,274,7.0,10.0,64,0.00,,,0.00,VWS V14.01,2013-02-24 16:49:00,
2013-02-24 11:54:00,42.1,30.4,29.81,WSW,256,5.0,10.0,63,0.00,,,0.00,VWS V14.01,2013-02-24 16:54:00,
2013-02-24 11:59:00,43.4,31.7,29.81,WSW,237,9.0,10.0,63,0.00,,,0.00,VWS V14.01,2013-02-24 16:59:00,
2013-02-24 12:00:00,41.2,30.0,29.80,West,267,7.0,16.0,64,0.00,,,0.00,VWS V14.01,2013-02-24 17:00:00,
2013-02-24 12:04:00,43.1,31.0,29.81,West,277,7.0,10.0,62,0.00,,,0.00,VWS V14.01,2013-02-24 17:04:00,
2013-02-24 12:09:00,42.8,31.1,29.81,West,277,7.0,10.0,63,0.00,,,0.00,VWS V14.01,2013-02-24 17:09:00,
2013-02-24 12:14:00,42.7,31.0,29.81,West,266,10.0,14.0,63,0.00,,,0.00,VWS V14.01,2013-02-24 17:14:00,
2013-02-24 12:15:00,41.5,29.5,29.80,NNW,331,4.0,12.0,62,0.00,,,0.00,VWS V14.01,2013-02-24 17:15:00,
2013-02-24 12:19:00,42.2,30.9,29.81,ENE,59,0.0,7.0,64,0.00,,,0.00,VWS V14.01,2013-02-24 17:19:00,
2013-02-24 12:24:00,42.2,30.5,29.81,West,267,7.0,7.0,63,0.00,,,0.00,VWS V14.01,2013-02-24 17:24:00,
2013-02-24 12:29:00,42.4,31.1,29.81,NE,38,1.0,8.0,64,0.00,,,0.00,VWS V14.01,2013-02-24 17:29:00,
2013-02-24 12:30:00,41.5,29.1,29.80,WSW,249,6.0,11.0,61,0.00,,,0.00,VWS V14.01,2013-02-24 17:30:00,
2013-02-24 12:34:00,42.2,30.1,29.81,WNW,300,7.0,11.0,62,0.00,,,0.00,VWS V14.01,2013-02-24 17:34:00,
2013-02-24 12:39:00,42.0,30.3,29.81,West,275,6.0,11.0,63,0.00,,,0.00,VWS V14.01,2013-02-24 17:39:00,
2013-02-24 12:44:00,41.8,30.5,29.81,WNW,292,10.0,11.0,64,0.00,,,0.00,VWS V14.01,2013-02-24 17:44:00,
2013-02-24 12:45:00,40.8,29.6,29.81,West,267,5.0,12.0,64,0.00,,,0.00,VWS V14.01,2013-02-24 17:45:00,
2013-02-24 12:49:00,41.5,30.2,29.81,WSW,242,7.0,7.0,64,0.00,,,0.00,VWS V14.01,2013-02-24 17:49:00,
2013-02-24 12:54:00,41.4,30.1,29.81,West,269,13.0,16.0,64,0.00,,,0.00,VWS V14.01,2013-02-24 17:54:00,
2013-02-24 12:59:00,41.2,30.0,29.81,West,278,7.0,16.0,64,0.00,,,0.00,VWS V14.01,2013-02-24 17:59:00,
2013-02-24 13:00:00,40.2,29.8,29.81,WSW,242,9.0,13.0,66,0.00,,,0.00,VWS V14.01,2013-02-24 18:00:00,
2013-02-24 13:04:00,41.2,29.6,29.80,WNW,287,2.0,9.0,63,0.00,,,0.00,VWS V14.01,2013-02-24 18:04:00,
2013-02-24 13:09:00,41.4,29.8,29.80,WSW,244,5.0,10.0,63,0.00,,,0.00,VWS V14.01,2013-02-24 18:09:00,
2013-02-24 13:14:00,41.5,29.5,29.80,West,270,9.0,12.0,62,0.00,,,0.00,VWS V14.01,2013-02-24 18:14:00,
2013-02-24 13:15:00,39.8,29.8,29.81,WSW,249,1.0,10.0,67,0.00,,,0.00,VWS V14.01,2013-02-24 18:15:00,
2013-02-24 13:19:00,41.7,29.7,29.80,West,261,0.0,6.0,62,0.00,,,0.00,VWS V14.01,2013-02-24 18:19:00,
2013-02-24 13:24:00,41.7,29.7,29.80,WSW,253,2.0,7.0,62,0.00,,,0.00,VWS V14.01,2013-02-24 18:24:00,
2013-02-24 13:29:00,41.5,29.1,29.80,WSW,248,0.0,11.0,61,0.00,,,0.00,VWS V14.01,2013-02-24 18:29:00,
2013-02-24 13:30:00,39.2,29.9,29.81,West,271,6.0,14.0,69,0.00,,,0.00,VWS V14.01,2013-02-24 18:30:00,
2013-02-24 13:34:00,41.4,29.0,29.80,SW,235,6.0,9.0,61,0.00,,,0.00,VWS V14.01,2013-02-24 18:34:00,
2013-02-24 13:39:00,41.2,29.2,29.80,SW,222,0.0,12.0,62,0.00,,,0.00,VWS V14.01,2013-02-24 18:39:00,
2013-02-24 13:44:00,40.8,29.6,29.80,SW,236,6.0,12.0,64,0.00,,,0.00,VWS V14.01,2013-02-24 18:44:00,
2013-02-24 13:45:00,38.5,29.9,29.81,WNW,283,5.0,13.0,71,0.00,,,0.00,VWS V14.01,2013-02-24 18:45:00,
2013-02-24 13:49:00,40.7,29.5,29.81,WSW,252,7.0,10.0,64,0.00,,,0.00,VWS V14.01,2013-02-24 18:49:00,
2013-02-24 13:54:00,40.4,29.6,29.81,WSW,243,7.0,12.0,65,0.00,,,0.00,VWS V14.01,2013-02-24 18:54:00,
2013-02-24 13:59:00,40.2,29.4,29.81,WSW,252,3.0,13.0,65,0.00,,,0.00,VWS V14.01,2013-02-24 18:59:00,
2013-02-24 14:00:00,37.8,29.6,29.82,West,273,8.0,15.0,72,0.00,,,0.00,VWS V14.01,2013-02-24 19:00:00,
2013-02-24 14:04:00,40.1,29.7,29.81,West,263,6.0,9.0,66,0.00,,,0.00,VWS V14.01,2013-02-24 19:04:00,
2013-02-24 14:09:00,40.1,29.7,29.81,WNW,300,5.0,10.0,66,0.00,,,0.00,VWS V14.01,2013-02-24 19:09:00,
2013-02-24 14:14:00,40.0,29.9,29.81,WSW,257,5.0,10.0,67,0.00,,,0.00,VWS V14.01,2013-02-24 19:14:00,
2013-02-24 14:15:00,36.8,29.0,29.83,WSW,244,7.0,15.0,73,0.00,,,0.00,VWS V14.01,2013-02-24 19:15:00,
2013-02-24 14:19:00,39.7,29.7,29.81,West,270,7.0,14.0,67,0.00,,,0.00,VWS V14.01,2013-02-24 19:19:00,
2013-02-24 14:24:00,39.5,29.8,29.81,WSW,258,0.0,14.0,68,0.00,,,0.00,VWS V14.01,2013-02-24 19:24:00,
2013-02-24 14:29:00,39.2,29.9,29.81,WNW,294,7.0,14.0,69,0.00,,,0.00,VWS V14.01,2013-02-24 19:29:00,
2013-02-24 14:30:00,35.7,28.2,29.84,West,267,9.0,16.0,74,0.00,,,0.00,VWS V14.01,2013-02-24 19:30:00,
2013-02-24 14:34:00,39.1,30.2,29.81,West,273,6.0,13.0,70,0.00,,,0.00,VWS V14.01,2013-02-24 19:34:00,
2013-02-24 14:39:00,38.8,29.9,29.81,WNW,286,7.0,13.0,70,0.00,,,0.00,VWS V14.01,2013-02-24 19:39:00,
2013-02-24 14:44:00,38.7,30.1,29.81,WSW,237,2.0,13.0,71,0.00,,,0.00,VWS V14.01,2013-02-24 19:44:00,
2013-02-24 14:45:00,35.2,27.4,29.86,SW,228,6.0,15.0,73,0.00,,,0.00,VWS V14.01,2013-02-24 19:45:00,
2013-02-24 14:49:00,38.5,29.9,29.81,WSW,255,7.0,14.0,71,0.00,,,0.00,VWS V14.01,2013-02-24 19:49:00,
2013-02-24 14:54:00,38.2,29.6,29.81,West,276,6.0,14.0,71,0.00,,,0.00,VWS V14.01,2013-02-24 19:54:00,
2013-02-24 14:59:00,37.9,29.7,29.81,WNW,284,12.0,14.0,72,0.00,,,0.00,VWS V14.01,2013-02-24 19:59:00,
2013-02-24 15:00:00,34.9,26.8,29.87,WSW,256,5.0,13.0,72,0.00,,,0.00,VWS V14.01,2013-02-24 20:00:00,
2013-02-24 15:04:00,37.5,29.3,29.82,WNW,291,6.0,12.0,72,0.00,,,0.00,VWS V14.01,2013-02-24 20:04:00,
2013-02-24 15:09:00,37.4,29.5,29.82,West,262,15.0,15.0,73,0.00,,,0.00,VWS V14.01,2013-02-24 20:09:00,
2013-02-24 15:14:00,36.9,29.1,29.82,West,270,6.0,15.0,73,0.00,,,0.00,VWS V14.01,2013-02-24 20:14:00,
2013-02-24 15:15:00,34.8,25.7,29.87,WNW,286,4.0,13.0,69,0.00,,,0.00,VWS V14.01,2013-02-24 20:15:00,
2013-02-24 15:19:00,36.5,28.7,29.83,WSW,248,9.0,16.0,73,0.00,,,0.00,VWS V14.01,2013-02-24 20:19:00,
2013-02-24 15:24:00,36.1,28.6,29.83,SW,221,9.0,16.0,74,0.00,,,0.00,VWS V14.01,2013-02-24 20:24:00,
2013-02-24 15:29:00,35.8,28.3,29.83,West,259,9.0,16.0,74,0.00,,,0.00,VWS V14.01,2013-02-24 20:29:00,
2013-02-24 15:30:00,34.9,25.4,29.87,West,261,4.0,14.0,68,0.00,,,0.00,VWS V14.01,2013-02-24 20:30:00,
2013-02-24 15:34:00,35.5,28.4,29.84,WNW,288,15.0,15.0,75,0.00,,,0.00,VWS V14.01,2013-02-24 20:34:00,
2013-02-24 15:39:00,35.4,28.0,29.84,South,191,9.0,15.0,74,0.00,,,0.00,VWS V14.01,2013-02-24 20:39:00,
2013-02-24 15:44:00,35.2,27.4,29.84,WNW,290,9.0,15.0,73,0.00,,,0.00,VWS V14.01,2013-02-24 20:44:00,
2013-02-24 15:45:00,34.9,24.7,29.88,WNW,296,4.0,12.0,66,0.00,,,0.00,VWS V14.01,2013-02-24 20:45:00,
2013-02-24 15:49:00,35.2,27.1,29.86,WNW,294,1.0,13.0,72,0.00,,,0.00,VWS V14.01,2013-02-24 20:49:00,
2013-02-24 15:54:00,35.1,27.0,29.86,SW,219,2.0,13.0,72,0.00,,,0.00,VWS V14.01,2013-02-24 20:54:00,
2013-02-24 15:59:00,35.1,27.0,29.86,SW,235,10.0,13.0,72,0.00,,,0.00,VWS V14.01,2013-02-24 20:59:00,
2013-02-24 16:00:00,34.9,24.0,29.88,West,279,4.0,13.0,64,0.00,,,0.00,VWS V14.01,2013-02-24 21:00:00,
2013-02-24 16:04:00,34.9,26.8,29.87,WSW,252,5.0,9.0,72,0.00,,,0.00,VWS V14.01,2013-02-24 21:04:00,
2013-02-24 16:09:00,34.9,26.5,29.87,West,273,4.0,9.0,71,0.00,,,0.00,VWS V14.01,2013-02-24 21:09:00,
2013-02-24 16:14:00,34.8,26.0,29.87,West,267,7.0,13.0,70,0.00,,,0.00,VWS V14.01,2013-02-24 21:14:00,
2013-02-24 16:15:00,35.4,23.3,29.89,WSW,247,6.0,11.0,61,0.00,,,0.00,VWS V14.01,2013-02-24 21:15:00,
2013-02-24 16:19:00,34.9,25.8,29.87,West,271,1.0,8.0,69,0.00,,,0.00,VWS V14.01,2013-02-24 21:19:00,
2013-02-24 16:24:00,34.9,25.4,29.87,West,259,9.0,14.0,68,0.00,,,0.00,VWS V14.01,2013-02-24 21:24:00,
2013-02-24 16:29:00,34.9,25.4,29.87,West,261,2.0,14.0,68,0.00,,,0.00,VWS V14.01,2013-02-24 21:29:00,
2013-02-24 16:30:00,35.2,22.7,29.89,West,271,8.0,15.0,60,0.00,,,0.00,VWS V14.01,2013-02-24 21:30:00,
2013-02-24 16:34:00,34.9,25.1,29.87,SW,215,4.0,7.0,67,0.00,,,0.00,VWS V14.01,2013-02-24 21:34:00,
2013-02-24 16:39:00,34.9,25.1,29.87,WNW,282,5.0,9.0,67,0.00,,,0.00,VWS V14.01,2013-02-24 21:39:00,
2013-02-24 16:44:00,34.9,24.7,29.87,NW,317,0.0,9.0,66,0.00,,,0.00,VWS V14.01,2013-02-24 21:44:00,
2013-02-24 16:45:00,34.9,22.0,29.91,WSW,242,6.0,15.0,59,0.00,,,0.00,VWS V14.01,2013-02-24 21:45:00,
2013-02-24 16:49:00,34.9,24.3,29.88,NW,306,7.0,13.0,65,0.00,,,0.00,VWS V14.01,2013-02-24 21:49:00,
2013-02-24 16:54:00,34.9,24.0,29.88,WSW,257,4.0,13.0,64,0.00,,,0.00,VWS V14.01,2013-02-24 21:54:00,
2013-02-24 16:59:00,34.9,24.0,29.88,West,279,1.0,13.0,64,0.00,,,0.00,VWS V14.01,2013-02-24 21:59:00,
2013-02-24 17:00:00,34.6,22.5,29.92,WNW,286,4.0,11.0,61,0.00,,,0.00,VWS V14.01,2013-02-24 22:00:00,
2013-02-24 17:04:00,34.9,23.6,29.88,West,279,0.0,7.0,63,0.00,,,0.00,VWS V14.01,2013-02-24 22:04:00,
2013-02-24 17:09:00,35.1,23.8,29.88,WSW,257,6.0,7.0,63,0.00,,,0.00,VWS V14.01,2013-02-24 22:09:00,
2013-02-24 17:14:00,35.2,23.5,29.88,SW,217,0.0,11.0,62,0.00,,,0.00,VWS V14.01,2013-02-24 22:14:00,
2013-02-24 17:15:00,33.9,22.6,29.92,SW,236,9.0,12.0,63,0.00,,,0.00,VWS V14.01,2013-02-24 22:15:00,
2013-02-24 17:19:00,35.4,23.3,29.89,West,267,5.0,12.0,61,0.00,,,0.00,VWS V14.01,2013-02-24 22:19:00,
2013-02-24 17:24:00,35.4,22.9,29.89,West,261,0.0,12.0,60,0.00,,,0.00,VWS V14.01,2013-02-24 22:24:00,
2013-02-24 17:29:00,35.2,22.7,29.89,SW,229,2.0,12.0,60,0.00,,,0.00,VWS V14.01,2013-02-24 22:29:00,
2013-02-24 17:30:00,33.6,22.7,29.93,West,268,10.0,11.0,64,0.00,,,0.00,VWS V14.01,2013-02-24 22:30:00,
2013-02-24 17:34:00,35.1,22.6,29.89,WSW,252,4.0,10.0,60,0.00,,,0.00,VWS V14.01,2013-02-24 22:34:00,
2013-02-24 17:39:00,35.1,22.6,29.89,West,270,5.0,10.0,60,0.00,,,0.00,VWS V14.01,2013-02-24 22:39:00,
2013-02-24 17:44:00,34.9,22.0,29.89,West,268,9.0,15.0,59,0.00,,,0.00,VWS V14.01,2013-02-24 22:44:00,
2013-02-24 17:45:00,33.4,22.5,29.94,WSW,249,5.0,11.0,64,0.00,,,0.00,VWS V14.01,2013-02-24 22:45:00,
2013-02-24 17:49:00,34.9,22.0,29.91,West,274,2.0,11.0,59,0.00,,,0.00,VWS V14.01,2013-02-24 22:49:00,
2013-02-24 17:54:00,34.9,22.0,29.91,West,269,2.0,11.0,59,0.00,,,0.00,VWS V14.01,2013-02-24 22:54:00,
2013-02-24 17:59:00,34.8,22.3,29.91,NNW,338,4.0,11.0,60,0.00,,,0.00,VWS V14.01,2013-02-24 22:59:00,
2013-02-24 18:00:00,33.1,23.0,29.95,North,5,0.0,13.0,66,0.00,,,0.00,VWS V14.01,2013-02-24 23:00:00,
2013-02-24 18:04:00,34.5,22.5,29.92,NNW,330,2.0,6.0,61,0.00,,,0.00,VWS V14.01,2013-02-24 23:04:00,
2013-02-24 18:09:00,34.2,22.5,29.92,WNW,292,2.0,10.0,62,0.00,,,0.00,VWS V14.01,2013-02-24 23:09:00,
2013-02-24 18:14:00,34.0,22.7,29.92,West,260,12.0,12.0,63,0.00,,,0.00,VWS V14.01,2013-02-24 23:14:00,
2013-02-24 18:15:00,32.8,22.7,29.96,SW,228,3.0,16.0,66,0.00,,,0.00,VWS V14.01,2013-02-24 23:15:00,
2013-02-24 18:19:00,33.9,22.6,29.92,WSW,252,7.0,11.0,63,0.00,,,0.00,VWS V14.01,2013-02-24 23:19:00,
2013-02-24 18:24:00,33.7,22.5,29.92,NNW,335,0.0,11.0,63,0.00,,,0.00,VWS V14.01,2013-02-24 23:24:00,
2013-02-24 18:29:00,33.6,22.7,29.92,West,261,4.0,11.0,64,0.00,,,0.00,VWS V14.01,2013-02-24 23:29:00,
2013-02-24 18:30:00,32.6,22.1,29.96,NNW,338,0.0,12.0,65,0.00,,,0.00,VWS V14.01,2013-02-24 23:30:00,
2013-02-24 18:34:00,33.6,22.7,29.93,WNW,294,6.0,10.0,64,0.00,,,0.00,VWS V14.01,2013-02-24 23:34:00,
2013-02-24 18:39:00,33.6,22.7,29.93,WNW,296,6.0,11.0,64,0.00,,,0.00,VWS V14.01,2013-02-24 23:39:00,
2013-02-24 18:44:00,33.4,22.5,29.93,West,267,2.0,11.0,64,0.00,,,0.00,VWS V14.01,2013-02-24 23:44:00,
2013-02-24 18:45:00,32.4,22.3,29.97,WSW,254,5.0,12.0,66,0.00,,,0.00,VWS V14.01,2013-02-24 23:45:00,
2013-02-24 18:49:00,33.4,22.5,29.94,West,281,7.0,10.0,64,0.00,,,0.00,VWS V14.01,2013-02-24 23:49:00,
2013-02-24 18:54:00,33.3,22.8,29.94,West,266,0.0,13.0,65,0.00,,,0.00,VWS V14.01,2013-02-24 23:54:00,
2013-02-24 18:58:00,33.3,23.2,29.94,West,269,7.0,13.0,66,0.00,,,0.00,VWS V14.01,2013-02-24 23:58:00,
2013-02-24 19:00:00,32.1,22.4,29.97,WSW,248,7.0,11.0,67,0.00,,,0.00,VWS V14.01,2013-02-25 00:00:00,
2013-02-24 19:03:00,33.1,23.0,29.95,ENE,59,3.0,5.0,66,0.00,,,0.00,VWS V14.01,2013-02-25 00:03:00,
2013-02-24 19:08:00,33.0,22.9,29.95,NE,49,1.0,10.0,66,0.00,,,0.00,VWS V14.01,2013-02-25 00:08:00,
2013-02-24 19:13:00,33.0,22.9,29.95,NE,50,0.0,10.0,66,0.00,,,0.00,VWS V14.01,2013-02-25 00:13:00,
2013-02-24 19:15:00,32.0,22.3,29.97,West,275,0.0,8.0,67,0.00,,,0.00,VWS V14.01,2013-02-25 00:15:00,
2013-02-24 19:18:00,32.8,22.7,29.96,WSW,252,6.0,7.0,66,0.00,,,0.00,VWS V14.01,2013-02-25 00:18:00,
2013-02-24 19:23:00,32.7,22.6,29.96,West,266,5.0,12.0,66,0.00,,,0.00,VWS V14.01,2013-02-25 00:23:00,
2013-02-24 19:28:00,32.7,22.6,29.96,NW,311,2.0,12.0,66,0.00,,,0.00,VWS V14.01,2013-02-25 00:28:00,
2013-02-24 19:30:00,32.0,21.9,29.98,WSW,254,4.0,11.0,66,0.00,,,0.00,VWS V14.01,2013-02-25 00:30:00,
2013-02-24 19:33:00,32.6,22.1,29.96,WSW,246,0.0,10.0,65,0.00,,,0.00,VWS V14.01,2013-02-25 00:33:00,
2013-02-24 19:38:00,32.6,22.1,29.96,West,265,6.0,10.0,65,0.00,,,0.00,VWS V14.01,2013-02-25 00:38:00,
2013-02-24 19:43:00,32.4,22.3,29.96,West,273,10.0,12.0,66,0.00,,,0.00,VWS V14.01,2013-02-25 00:43:00,
2013-02-24 19:45:00,32.1,21.3,29.99,NNW,346,5.0,15.0,64,0.00,,,0.00,VWS V14.01,2013-02-25 00:45:00,
2013-02-24 19:48:00,32.4,22.3,29.97,WSW,246,5.0,8.0,66,0.00,,,0.00,VWS V14.01,2013-02-25 00:48:00,
2013-02-24 19:53:00,32.3,22.6,29.97,NNW,329,2.0,10.0,67,0.00,,,0.00,VWS V14.01,2013-02-25 00:53:00,
2013-02-24 19:58:00,32.1,22.4,29.97,SW,225,7.0,11.0,67,0.00,,,0.00,VWS V14.01,2013-02-25 00:58:00,
2013-02-24 20:00:00,32.0,21.2,29.99,SW,214,10.0,11.0,64,0.00,,,0.00,VWS V14.01,2013-02-25 01:00:00,
2013-02-24 20:03:00,32.1,22.4,29.97,WNW,299,6.0,7.0,67,0.00,,,0.00,VWS V14.01,2013-02-25 01:03:00,
2013-02-24 20:08:00,32.0,22.3,29.97,West,280,0.0,8.0,67,0.00,,,0.00,VWS V14.01,2013-02-25 01:08:00,
2013-02-24 20:13:00,32.0,22.3,29.97,WSW,247,1.0,8.0,67,0.00,,,0.00,VWS V14.01,2013-02-25 01:13:00,
2013-02-24 20:15:00,32.0,21.2,29.99,WSW,252,4.0,15.0,64,0.00,,,0.00,VWS V14.01,2013-02-25 01:15:00,
2013-02-24 20:18:00,31.8,22.1,29.97,SW,230,5.0,8.0,67,0.00,,,0.00,VWS V14.01,2013-02-25 01:18:00,
2013-02-24 20:23:00,31.8,22.1,29.97,SSW,208,8.0,11.0,67,0.00,,,0.00,VWS V14.01,2013-02-25 01:23:00,
2013-02-24 20:28:00,32.0,21.9,29.97,West,267,4.0,11.0,66,0.00,,,0.00,VWS V14.01,2013-02-25 01:28:00,
2013-02-24 20:30:00,31.8,21.0,29.99,WSW,245,11.0,14.0,64,0.00,,,0.00,VWS V14.01,2013-02-25 01:30:00,
2013-02-24 20:33:00,32.0,21.9,29.98,WSW,244,5.0,8.0,66,0.00,,,0.00,VWS V14.01,2013-02-25 01:33:00,
2013-02-24 20:38:00,32.0,21.6,29.98,SW,233,8.0,9.0,65,0.00,,,0.00,VWS V14.01,2013-02-25 01:38:00,
2013-02-24 20:43:00,32.1,21.3,29.98,SW,232,7.0,15.0,64,0.00,,,0.00,VWS V14.01,2013-02-25 01:43:00,
2013-02-24 20:45:00,31.7,20.9,29.99,WNW,282,6.0,13.0,64,0.00,,,0.00,VWS V14.01,2013-02-25 01:45:00,
2013-02-24 20:48:00,32.1,21.3,29.99,WSW,257,6.0,10.0,64,0.00,,,0.00,VWS V14.01,2013-02-25 01:48:00,
2013-02-24 20:53:00,32.1,21.3,29.99,West,265,0.0,10.0,64,0.00,,,0.00,VWS V14.01,2013-02-25 01:53:00,
2013-02-24 20:58:00,32.0,21.2,29.99,WSW,237,6.0,10.0,64,0.00,,,0.00,VWS V14.01,2013-02-25 01:58:00,
2013-02-24 21:00:00,31.5,20.7,30.00,SW,235,2.0,12.0,64,0.00,,,0.00,VWS V14.01,2013-02-25 02:00:00,
2013-02-24 21:03:00,32.0,21.2,29.99,WSW,240,6.0,13.0,64,0.00,,,0.00,VWS V14.01,2013-02-25 02:03:00,
2013-02-24 21:08:00,32.0,21.2,29.99,North,351,8.0,14.0,64,0.00,,,0.00,VWS V14.01,2013-02-25 02:08:00,
2013-02-24 21:13:00,32.0,21.2,29.99,WSW,240,11.0,15.0,64,0.00,,,0.00,VWS V14.01,2013-02-25 02:13:00,
2013-02-24 21:15:00,31.4,20.6,30.00,WSW,246,8.0,14.0,64,0.00,,,0.00,VWS V14.01,2013-02-25 02:15:00,
2013-02-24 21:18:00,31.8,21.0,29.99,WSW,238,10.0,12.0,64,0.00,,,0.00,VWS V14.01,2013-02-25 02:18:00,
2013-02-24 21:23:00,31.8,21.0,29.99,WSW,237,9.0,14.0,64,0.00,,,0.00,VWS V14.01,2013-02-25 02:23:00,
2013-02-24 21:28:00,31.8,21.0,29.99,WSW,257,14.0,14.0,64,0.00,,,0.00,VWS V14.01,2013-02-25 02:28:00,
2013-02-24 21:30:00,31.4,20.6,30.00,WNW,295,5.0,13.0,64,0.00,,,0.00,VWS V14.01,2013-02-25 02:30:00,
2013-02-24 21:33:00,31.8,21.0,29.99,West,277,9.0,13.0,64,0.00,,,0.00,VWS V14.01,2013-02-25 02:33:00,
2013-02-24 21:38:00,31.8,21.0,29.99,West,271,9.0,13.0,64,0.00,,,0.00,VWS V14.01,2013-02-25 02:38:00,
2013-02-24 21:43:00,31.7,20.9,29.99,NW,311,4.0,13.0,64,0.00,,,0.00,VWS V14.01,2013-02-25 02:43:00,
2013-02-24 21:45:00,31.4,20.6,30.00,West,280,5.0,12.0,64,0.00,,,0.00,VWS V14.01,2013-02-25 02:45:00,
2013-02-24 21:48:00,31.7,20.9,29.99,North,11,0.0,11.0,64,0.00,,,0.00,VWS V14.01,2013-02-25 02:48:00,
2013-02-24 21:53:00,31.5,20.7,29.99,WSW,242,8.0,11.0,64,0.00,,,0.00,VWS V14.01,2013-02-25 02:53:00,
2013-02-24 21:58:00,31.5,20.7,29.99,ENE,57,9.0,12.0,64,0.00,,,0.00,VWS V14.01,2013-02-25 02:58:00,
2013-02-24 22:00:00,31.2,20.8,30.00,SW,235,4.0,11.0,65,0.00,,,0.00,VWS V14.01,2013-02-25 03:00:00,
2013-02-24 22:03:00,31.5,20.7,30.00,NNW,340,0.0,8.0,64,0.00,,,0.00,VWS V14.01,2013-02-25 03:03:00,
2013-02-24 22:08:00,31.4,20.6,30.00,WSW,248,0.0,14.0,64,0.00,,,0.00,VWS V14.01,2013-02-25 03:08:00,
2013-02-24 22:13:00,31.4,20.6,30.00,WSW,240,7.0,14.0,64,0.00,,,0.00,VWS V14.01,2013-02-25 03:13:00,
2013-02-24 22:15:00,31.1,21.1,30.00,WSW,240,0.0,10.0,66,0.00,,,0.00,VWS V14.01,2013-02-25 03:15:00,
2013-02-24 22:18:00,31.4,20.6,30.00,SSW,207,4.0,12.0,64,0.00,,,0.00,VWS V14.01,2013-02-25 03:18:00,
2013-02-24 22:23:00,31.4,20.6,30.00,WNW,295,0.0,13.0,64,0.00,,,0.00,VWS V14.01,2013-02-25 03:23:00,
2013-02-24 22:28:00,31.4,20.6,30.00,West,275,6.0,13.0,64,0.00,,,0.00,VWS V14.01,2013-02-25 03:28:00,
2013-02-24 22:30:00,30.9,20.9,30.00,WNW,286,0.0,11.0,66,0.00,,,0.00,VWS V14.01,2013-02-25 03:30:00,
2013-02-24 22:33:00,31.4,20.6,30.00,WSW,250,6.0,10.0,64,0.00,,,0.00,VWS V14.01,2013-02-25 03:33:00,
2013-02-24 22:38:00,31.4,20.6,30.00,WNW,286,1.0,12.0,64,0.00,,,0.00,VWS V14.01,2013-02-25 03:38:00,
2013-02-24 22:43:00,31.4,20.6,30.00,NW,323,0.0,12.0,64,0.00,,,0.00,VWS V14.01,2013-02-25 03:43:00,
2013-02-24 22:45:00,30.8,21.1,30.00,West,268,0.0,7.0,67,0.00,,,0.00,VWS V14.01,2013-02-25 03:45:00,
2013-02-24 22:48:00,31.4,20.6,30.00,SW,221,1.0,8.0,64,0.00,,,0.00,VWS V14.01,2013-02-25 03:48:00,
2013-02-24 22:53:00,31.4,20.6,30.00,WNW,290,0.0,11.0,64,0.00,,,0.00,VWS V14.01,2013-02-25 03:53:00,
2013-02-24 22:58:00,31.2,20.5,30.00,West,279,4.0,11.0,64,0.00,,,0.00,VWS V14.01,2013-02-25 03:58:00,
2013-02-24 23:00:00,30.6,21.3,30.01,WSW,246,5.0,7.0,68,0.00,,,0.00,VWS V14.01,2013-02-25 04:00:00,
2013-02-24 23:03:00,31.2,20.8,30.00,SSW,209,3.0,6.0,65,0.00,,,0.00,VWS V14.01,2013-02-25 04:03:00,
2013-02-24 23:08:00,31.1,20.7,30.00,WSW,257,0.0,7.0,65,0.00,,,0.00,VWS V14.01,2013-02-25 04:08:00,
2013-02-24 23:13:00,31.1,20.7,30.00,WSW,244,4.0,10.0,65,0.00,,,0.00,VWS V14.01,2013-02-25 04:13:00,
2013-02-24 23:15:00,30.6,21.6,30.02,SSW,209,1.0,9.0,69,0.00,,,0.00,VWS V14.01,2013-02-25 04:15:00,
2013-02-24 23:18:00,30.9,20.9,30.00,SW,231,4.0,5.0,66,0.00,,,0.00,VWS V14.01,2013-02-25 04:18:00,
2013-02-24 23:23:00,31.1,21.1,30.00,WSW,248,4.0,11.0,66,0.00,,,0.00,VWS V14.01,2013-02-25 04:23:00,
2013-02-24 23:28:00,30.9,20.9,30.00,West,271,9.0,11.0,66,0.00,,,0.00,VWS V14.01,2013-02-25 04:28:00,
2013-02-24 23:30:00,30.8,21.5,30.03,SW,232,7.0,13.0,68,0.00,,,0.00,VWS V14.01,2013-02-25 04:30:00,
2013-02-24 23:33:00,30.9,20.9,30.00,West,275,0.0,0.0,66,0.00,,,0.00,VWS V14.01,2013-02-25 04:33:00,
2013-02-24 23:38:00,30.9,20.9,30.00,West,281,0.0,7.0,66,0.00,,,0.00,VWS V14.01,2013-02-25 04:38:00,
2013-02-24 23:43:00,30.8,21.1,30.00,West,268,4.0,7.0,67,0.00,,,0.00,VWS V14.01,2013-02-25 04:43:00,
2013-02-24 23:45:00,30.9,21.6,30.03,WNW,295,0.0,9.0,68,0.00,,,0.00,VWS V14.01,2013-02-25 04:45:00,
2013-02-24 23:48:00,30.6,21.3,30.00,West,263,0.0,5.0,68,0.00,,,0.00,VWS V14.01,2013-02-25 04:48:00,
2013-02-24 23:53:00,30.6,21.3,30.00,West,277,0.0,7.0,68,0.00,,,0.00,VWS V14.01,2013-02-25 04:53:00,
2013-02-24 23:58:00,30.6,21.3,30.00,SSW,211,5.0,7.0,68,0.00,,,0.00,VWS V14.01,2013-02-25 04:58:00,